OPS 4682 DEB, 38414

Orbit data source: Space-Track

OPS 4682 DEB, 38414 is space debris in LEO originally from a launch on Sat, 03 Apr 1965 UTC launched from the Air Force Western Test Range (AFWTR). Debris objects in space refer to the collection of defunct objects orbiting the Earth. Examples of debris include non-operational satellites, rocket bodies, and fragments generated from explosions, collisions, or faulty payload assembly.

Loading next visibility...
Identifier
38414, 1965-027DT
Orbit
LEO
Country
Flag of USUS
Related business
Manufacturer
Unknown
Mission
Spacecraft
Bus & Motor
Unknown
Mass
Unknown
Launch date (UTC)
1965-04-03 (61 years ago)
Launch vehicle
Unknown
Launch site
Air Force Western Test Range (AFWTR)
Object type
Payload
Rocket body
Debris
Shape & HBR
Unknown shape, 0.1 m
Radar Cross Section
Medium (>0.1 m² and <1 m²)

Expand to show TLE details & history
Last TLE update: 15 hours ago

TLE from 15 hours ago
0 OPS 4682 DEB
1 38414U 65027DT  26207.64703188  .00000229  00000-0  75416-3 0  9993
2 38414  90.2336 353.2228 0038251   8.3798 351.7954 12.98103006145929
Epoch: 2026-07-26T15:31Z
TLE epoch observation values (Epoch: 2026-07-26T15:31:43.554Z)
Latitude
0.00001°
Longitude
175.94936°
Altitude
1,243.452 km
Speed
7.247 km/s
True Right ascension
23h 32m 53s
True Declination
0° 00' 00"
Sunlit
Object was in full shadow at epoch
Visualization orbit readout
Latitude
Unknown
Longitude
Unknown
Altitude
Unknown
Speed
Unknown
Apparent Right ascension
Unknown
Apparent Declination
Unknown
Sunlit
N/A
Visualization observer readout
Local Sidereal Time
19:40:36
Azimuth
Unknown
Elevation
Unknown
Doppler factor
Unknown
Orbital elements
Apogee altitude
1,295.9 km
Perigee altitude
1,237.416 km
Semi-major axis
7,644.795 km
Eccentricity
0.00383
Inclination
90.2336°
RAAN
353.2228°
Arg. of periapsis
8.3798°
True anomaly
351.73255°
Mean anomaly
351.7954°
Eccentric anomaly
351.764°
Mean motion
3.24709 °/min
Orbital period
110.87 mins
BSTAR
0.00075416
Loading maneuver chart data...
Computing Atmospheric mass density...
Loading historical data...
Loading historical data...
Loading historical data...
Loading historical data...
Loading historical data...
Loading historical data...
Loading historical data...

Documentation

Showing up to 5 results
|